Retour au catalogue

ATLAS 5 CENTAUR DEB

ActifHEO
NORAD 43976·DEBRIS·🇺🇸 United States

Lancé Sep 17, 2014 depuis Cape Canaveral Space Force Station

Loading…

Prochains Passages (prochaines 24 heures)

TLE

FraisSource: Space-Track

Époque: Sep 7, 2026, 15:35 UTC

1 43976U 14055AF  26250.64982708 -.00000099  00000-0  00000-0 0  9992
2 43976  20.0261 141.4914 4738340 165.1543 215.8571  1.83493364 53716

Suivez ATLAS 5 CENTAUR DEB en temps réel avec AllMySat

Download on the App Store